When you browse on this site, cookies collect data to enhance your experience and personalize the content and advertising you see.
Visit our Privacy Policy to learn more. By continuing to use the site, you agree to this use of cookies and data.
  • In Österreich
  • Länderverzeichnis
  • Für 7 Tage
  • Wassertemperatur
  • Wetterkarte
  • News
  • Widgets
  • user-avatar
    Anmelden

    Stündliche Wetter Karayar

    Heute, 27 Januar, Montag

    Zeit Temperatur Niederschläge Wind Luftdruck Luftfeuchtigkeit
    00:00 -14°C° 0 mm 5 m/S 740 mmHg 94%
    01:00 -17°C° 0 mm 5 m/S 741 mmHg 94%
    02:00 -17°C° 0 mm 5 m/S 741 mmHg 95%
    03:00 -17°C° 0 mm 5 m/S 741 mmHg 95%
    04:00 -16°C° 0 mm 4 m/S 742 mmHg 96%
    05:00 -16°C° 0 mm 4 m/S 742 mmHg 96%
    06:00 -16°C° 0 mm 4 m/S 742 mmHg 97%
    07:00 -15°C° 0 mm 3 m/S 742 mmHg 97%
    08:00 -15°C° 0 mm 4 m/S 742 mmHg 96%
    09:00 -14°C° 0 mm 4 m/S 741 mmHg 96%
    10:00 -12°C° 0 mm 4 m/S 741 mmHg 95%
    11:00 -12°C° 0.5 mm 5 m/S 740 mmHg 94%
    12:00 -11°C° 0.5 mm 6 m/S 739 mmHg 94%
    13:00 -11°C° 0.5 mm 7 m/S 738 mmHg 93%
    14:00 -10°C° 0.4 mm 8 m/S 737 mmHg 94%
    15:00 -8°C° 0.4 mm 9 m/S 737 mmHg 94%
    16:00 -6°C° 0.4 mm 9 m/S 736 mmHg 94%
    17:00 -8°C° 0.1 mm 10 m/S 736 mmHg 91%
    18:00 -9°C° 0.1 mm 10 m/S 737 mmHg 89%
    19:00 -11°C° 0.1 mm 11 m/S 738 mmHg 87%
    20:00 -12°C° 0 mm 10 m/S 739 mmHg 87%
    21:00 -14°C° 0 mm 10 m/S 741 mmHg 87%
    22:00 -15°C° 0 mm 10 m/S 742 mmHg 87%
    23:00 -17°C° 0 mm 8 m/S 744 mmHg 88%

    Morgen, 28 Januar, Dienstag

    Zeit Temperatur Niederschläge Wind Luftdruck Luftfeuchtigkeit
    00:00 -18°C° 0 mm 7 m/S 745 mmHg 89%
    01:00 -19°C° 0 mm 5 m/S 746 mmHg 91%
    02:00 -21°C° 0 mm 5 m/S 748 mmHg 93%
    03:00 -22°C° 0 mm 4 m/S 749 mmHg 95%
    04:00 -22°C° 0 mm 3 m/S 750 mmHg 97%
    05:00 -23°C° 0 mm 3 m/S 751 mmHg 98%
    06:00 -23°C° 0 mm 2 m/S 751 mmHg 98%
    07:00 -24°C° 0 mm 2 m/S 752 mmHg 99%
    08:00 -24°C° 0 mm 2 m/S 753 mmHg 98%
    09:00 -21°C° 0 mm 1 m/S 754 mmHg 97%
    10:00 -21°C° 0 mm 1 m/S 755 mmHg 97%
    11:00 -20°C° 0 mm 1 m/S 755 mmHg 95%
    12:00 -19°C° 0 mm 1 m/S 756 mmHg 94%
    13:00 -18°C° 0 mm 1 m/S 756 mmHg 93%
    14:00 -19°C° 0 mm 0 m/S 756 mmHg 93%
    15:00 -19°C° 0 mm 0 m/S 757 mmHg 93%
    16:00 -20°C° 0 mm 0 m/S 757 mmHg 93%
    17:00 -19°C° 0 mm 0 m/S 757 mmHg 92%
    18:00 -19°C° 0 mm 1 m/S 758 mmHg 91%
    19:00 -19°C° 0 mm 1 m/S 758 mmHg 90%
    20:00 -19°C° 0 mm 1 m/S 758 mmHg 89%
    21:00 -18°C° 0 mm 1 m/S 758 mmHg 88%
    22:00 -18°C° 0 mm 1 m/S 759 mmHg 88%
    23:00 -18°C° 0 mm 1 m/S 759 mmHg 87%

    übermorgen, 29 Januar, Mittwoch

    Zeit Temperatur Niederschläge Wind Luftdruck Luftfeuchtigkeit
    00:00 -20°C° 0 mm 2 m/S 759 mmHg 87%
    01:00 -20°C° 0 mm 2 m/S 759 mmHg 87%
    02:00 -20°C° 0 mm 2 m/S 759 mmHg 87%
    03:00 -20°C° 0 mm 2 m/S 759 mmHg 87%
    04:00 -20°C° 0 mm 2 m/S 759 mmHg 87%
    05:00 -20°C° 0 mm 2 m/S 759 mmHg 86%
    06:00 -20°C° 0 mm 2 m/S 759 mmHg 86%
    07:00 -21°C° 0 mm 2 m/S 759 mmHg 86%
    08:00 -20°C° 0 mm 2 m/S 759 mmHg 85%
    09:00 -22°C° 0 mm 3 m/S 759 mmHg 85%
    10:00 -22°C° 0 mm 3 m/S 759 mmHg 84%
    11:00 -21°C° 0 mm 3 m/S 759 mmHg 83%
    12:00 -18°C° 0 mm 3 m/S 758 mmHg 82%
    13:00 -18°C° 0 mm 4 m/S 758 mmHg 81%
    14:00 -18°C° 0 mm 4 m/S 758 mmHg 81%
    15:00 -17°C° 0 mm 4 m/S 758 mmHg 82%
    16:00 -17°C° 0 mm 4 m/S 757 mmHg 82%
    17:00 -18°C° 0 mm 4 m/S 757 mmHg 83%
    18:00 -18°C° 0 mm 4 m/S 757 mmHg 83%
    19:00 -19°C° 0 mm 4 m/S 757 mmHg 83%
    20:00 -18°C° 0 mm 4 m/S 757 mmHg 84%
    21:00 -18°C° 0 mm 4 m/S 757 mmHg 84%
    22:00 -17°C° 0 mm 4 m/S 757 mmHg 84%
    23:00 -17°C° 0 mm 4 m/S 757 mmHg 86%

    30 Januar, Donnerstag

    Zeit Temperatur Niederschläge Wind Luftdruck Luftfeuchtigkeit
    00:00 -16°C° 0 mm 4 m/S 757 mmHg 87%
    01:00 -17°C° 0 mm 5 m/S 756 mmHg 89%
    02:00 -17°C° 0 mm 5 m/S 756 mmHg 90%
    03:00 -17°C° 0 mm 5 m/S 756 mmHg 92%
    04:00 -17°C° 0 mm 5 m/S 756 mmHg 93%
    05:00 -17°C° 0 mm 5 m/S 755 mmHg 93%
    06:00 -15°C° 0 mm 4 m/S 755 mmHg 93%
    07:00 -15°C° 0 mm 4 m/S 755 mmHg 94%
    08:00 -15°C° 0.1 mm 5 m/S 755 mmHg 94%
    09:00 -14°C° 0.1 mm 5 m/S 755 mmHg 94%
    10:00 -14°C° 0.1 mm 5 m/S 755 mmHg 94%
    11:00 -13°C° 0.2 mm 5 m/S 755 mmHg 94%
    12:00 -13°C° 0.2 mm 5 m/S 755 mmHg 94%
    13:00 -12°C° 0.2 mm 5 m/S 755 mmHg 94%
    14:00 -12°C° 0.1 mm 5 m/S 755 mmHg 93%
    15:00 -12°C° 0.1 mm 5 m/S 755 mmHg 93%
    16:00 -12°C° 0.1 mm 5 m/S 754 mmHg 92%
    17:00 -12°C° 0.1 mm 5 m/S 754 mmHg 92%
    18:00 -12°C° 0.1 mm 5 m/S 754 mmHg 91%
    19:00 -13°C° 0.1 mm 5 m/S 754 mmHg 90%
    20:00 -13°C° 0 mm 5 m/S 754 mmHg 88%
    21:00 -13°C° 0 mm 5 m/S 754 mmHg 87%
    22:00 -13°C° 0 mm 5 m/S 754 mmHg 85%
    23:00 -13°C° 0 mm 5 m/S 754 mmHg 86%

    31 Januar, Freitag

    Zeit Temperatur Niederschläge Wind Luftdruck Luftfeuchtigkeit
    00:00 -14°C° 0 mm 5 m/S 754 mmHg 86%
    01:00 -14°C° 0 mm 5 m/S 754 mmHg 86%
    02:00 -14°C° 0 mm 5 m/S 754 mmHg 86%
    03:00 -15°C° 0 mm 5 m/S 753 mmHg 87%
    04:00 -15°C° 0 mm 5 m/S 753 mmHg 87%
    05:00 -15°C° 0 mm 5 m/S 753 mmHg 86%
    06:00 -17°C° 0 mm 5 m/S 753 mmHg 86%
    07:00 -17°C° 0 mm 5 m/S 753 mmHg 86%
    08:00 -17°C° 0 mm 5 m/S 753 mmHg 85%
    09:00 -17°C° 0 mm 5 m/S 753 mmHg 85%
    10:00 -17°C° 0 mm 5 m/S 753 mmHg 85%
    11:00 -15°C° 0 mm 5 m/S 752 mmHg 85%
    12:00 -15°C° 0 mm 5 m/S 752 mmHg 85%
    13:00 -15°C° 0 mm 6 m/S 752 mmHg 85%
    14:00 -15°C° 0 mm 6 m/S 751 mmHg 85%
    15:00 -15°C° 0 mm 6 m/S 751 mmHg 86%
    16:00 -15°C° 0 mm 6 m/S 750 mmHg 86%
    17:00 -15°C° 0 mm 6 m/S 750 mmHg 87%
    18:00 -14°C° 0 mm 6 m/S 750 mmHg 87%
    19:00 -14°C° 0 mm 6 m/S 750 mmHg 88%
    20:00 -14°C° 0 mm 6 m/S 749 mmHg 88%
    21:00 -14°C° 0 mm 6 m/S 749 mmHg 89%
    22:00 -14°C° 0 mm 6 m/S 749 mmHg 89%
    23:00 -14°C° 0 mm 6 m/S 749 mmHg 89%

    1 Februar, Samstag

    Zeit Temperatur Niederschläge Wind Luftdruck Luftfeuchtigkeit
    00:00 -14°C° 0 mm 6 m/S 749 mmHg 90%
    01:00 -14°C° 0 mm 6 m/S 749 mmHg 90%
    02:00 -14°C° 0.2 mm 6 m/S 749 mmHg 91%
    03:00 -14°C° 0.2 mm 6 m/S 749 mmHg 91%
    04:00 -14°C° 0.2 mm 6 m/S 749 mmHg 92%
    05:00 -14°C° 0.3 mm 6 m/S 748 mmHg 92%
    06:00 -14°C° 0.3 mm 6 m/S 748 mmHg 92%
    07:00 -14°C° 0.3 mm 6 m/S 748 mmHg 93%
    08:00 -13°C° 0.5 mm 5 m/S 748 mmHg 93%
    09:00 -14°C° 0.5 mm 5 m/S 748 mmHg 93%
    10:00 -14°C° 0.5 mm 5 m/S 748 mmHg 93%
    11:00 -13°C° 0.4 mm 5 m/S 748 mmHg 93%
    12:00 -13°C° 0.4 mm 5 m/S 748 mmHg 94%
    13:00 -11°C° 0.4 mm 4 m/S 748 mmHg 94%
    14:00 -11°C° 0.5 mm 4 m/S 747 mmHg 94%
    15:00 -10°C° 0.5 mm 3 m/S 747 mmHg 95%
    16:00 -9°C° 0.5 mm 3 m/S 747 mmHg 95%
    17:00 -9°C° 0.4 mm 3 m/S 747 mmHg 95%
    18:00 -9°C° 0.4 mm 3 m/S 747 mmHg 95%
    19:00 -8°C° 0.4 mm 2 m/S 747 mmHg 95%
    20:00 -8°C° 0.4 mm 2 m/S 747 mmHg 96%
    21:00 -7°C° 0.4 mm 2 m/S 747 mmHg 96%
    22:00 -7°C° 0.4 mm 2 m/S 747 mmHg 96%
    23:00 -7°C° 0.6 mm 2 m/S 747 mmHg 96%
    Mehr zeigen